Location: Allens Landing
(37.8284°N, 89.7284°W)
Time: 13:38:20
(UTC+00:00)

Vanguard 2 - Pass Details

Date: 17 December 2025
Orbit: 552 x 2898 km, 32.9° (Epoch: 13 January)

Event Time Altitude Azimuth Distance (km) Brightness Sun altitude
Exits shadow 10:24:39 21° 127° (SE) 1,258 9.1 -31.5°
Drops below altitude 10° 10:26:13 10° 115° (ESE) 1,844 10.3 -31.2°
Sets 10:28:38 0° 108° (ESE) 2,832 11.6 -30.7°
